Dewpoint
4 4 4 5 4 4 3 2 1 -1 -8 -12 -3 -1 -2 -2 -2 -3 -4 -3 -1 -1 -3 -3 -3 -2 -1 -1 -1 -3 -1 -2 -1 -2 -2 -3 -2 -4 -2 -4 -5 -5 -3 -2 -1 0 -1 -5 -2 -5 -8 -9 -4 -2
3 3 4 5 5 4 4 3 3 2 -1 -11 -9 -1 -1 -2 -2 -3 -3 -3 -2 -2 -2 -3 -3 -3 -3 -2 -1 -1 -2 -1 -1 -3 -2 -2 -1 -2 -4 -6 -6 -4 -7 -7 -4 -6 -7 -4 -4 -5 -7 -5 -5 -4
0 2 4 4 4 5 4 4 3 3 0 -6 -11 -5 -1 -2 -2 -2 -2 -2 -2 -2 -2 -2 -3 -3 -3 -2 -2 -0 -1 -1 -1 -1 -2 -1 -1 -3 -2 -3 -3 -5 -6 -5 -5 -8 -6 -7 -7 -7 -6 -5 -5 -5
0 1 4 4 4 4 5 5 4 3 1 -0 -10 -11 -4 -1 -2 -2 -1 -2 -3 -2 -0 -2 -4 -3 -3 -3 -2 -1 -1 -1 -1 -1 -0 -1 -1 -3 -3 -4 -5 -7 -5 -5 -5 -6 -7 -6 -6 -7 -6 -7 -6 -4
-3 -1 1 3 4 4 5 5 4 4 1 -0 -4 -10 -11 -3 -1 -1 -2 -2 -2 -3 -1 -2 -3 -3 -3 -3 -2 -2 -1 -1 -1 -0 -0 0 -1 -2 -3 -3 -2 -5 -5 -5 -6 -8 -8 -8 -8 -7 -6 -6 -6 -5
-6 -5 -3 1 3 4 5 5 5 4 4 -0 -0 -9 -10 -8 -0 0 -1 -2 -2 -3 -4 -1 -3 -3 -3 -3 -2 -2 -1 -1 -1 -0 -0 -1 -1 -2 0 -0 -3 -4 -5 -6 -7 -7 -7 -7 -6 -6 -6 -6 -6 -5
-8 -7 -7 -5 -1 3 4 4 4 4 4 2 1 -5 -10 -10 -1 0 -1 -3 -5 -6 -6 -2 -2 -2 -2 -2 -2 -2 -2 -1 -1 -1 -1 -1 -1 -1 0 -1 -4 -4 -5 -5 -5 -5 -4 -5 -5 -5 -5 -5 -5 -4
-8 -7 -6 -4 -4 -1 4 4 4 4 4 2 1 0 -9 -10 -4 -0 -0 -0 -0 -1 -3 -0 -1 -5 -2 -2 -2 -2 -2 -1 -1 -1 -2 -2 -2 -1 1 -2 -2 -3 -3 -4 -4 -5 -5 -5 -4 -4 -4 -4 -4 -3
-5 -4 -3 -3 -3 -2 -1 3 4 4 3 2 2 1 -9 -8 -3 -1 -1 -1 -1 -1 -4 -3 -1 0 -3 -3 -2 -2 -2 -1 -2 -2 -2 -2 -1 -0 -1 -2 -2 -3 -4 -3 -4 -4 -5 -5 -6 -5 -5 -4 -4 -3
-7 -4 -4 -3 -3 -2 -1 0 3 3 3 1 1 -3 -7 -1 -1 -1 -2 -2 -1 -1 -2 -3 -5 -2 -3 -2 -2 -2 -2 -1 0 -2 -3 -2 -1 -3 -3 -4 -4 -4 -4 -4 -4 -4 -4 -6 -9 -6 -5 -4 -4 -3
-7 -7 -4 -2 -2 -1 -0 0 2 3 2 1 0 -2 -3 -1 -1 -2 -2 -2 -2 -2 -2 -3 -4 -3 -4 -1 -1 -2 -1 -2 0 -1 -1 -0 -1 -3 -4 -5 -7 -7 -5 -5 -5 -6 -8 -9 -8 -4 -4 -4 -4 -4
-8 -7 -7 -6 -3 -2 -1 -0 1 3 2 1 0 -1 -1 -2 -2 -2 -2 -4 -3 -1 -4 -4 -4 -4 -4 -4 -2 -3 -1 -3 -0 -4 -2 -1 -2 -5 -6 -7 -9 -11 -11 -12 -12 -9 -7 -6 -7 -5 -5 -5 -4 -4
-9 -9 -7 -7 -6 -5 -2 -1 1 2 2 0 -0 -1 -1 -2 -2 -1 -1 -1 -2 -4 -5 -4 -3 -4 -4 -3 -3 -3 -1 -1 -5 -2 -2 -2 -5 -9 -10 -10 -12 -13 -11 -8 -6 -8 -7 -6 -6 -5 -5 -7 -7 -5
-10 -9 -9 -8 -7 -7 -4 -2 1 1 1 0 -1 -1 -1 -1 -3 -2 -2 -1 -4 -5 -5 -4 -4 -3 -4 -3 -3 -1 -3 -4 -1 -1 -1 -2 -7 -9 -10 -13 -14 -11 -10 -8 -6 -7 -7 -6 -5 -5 -6 -7 -8 -7
-10 -11 -10 -9 -8 -8 -7 -3 1 1 0 -0 -1 0 -1 -3 -5 -5 -5 -5 -6 -6 -5 -4 -5 -5 -3 -2 -4 -4 -3 -2 -2 -1 -2 -7 -8 -13 -17 -17 -15 -13 -13 -13 -13 -11 -9 -8 -6 -6 -6 -7 -8 -7
-9 -11 -11 -10 -10 -8 -8 -5 0 0 -0 -0 -1 -1 -3 -4 -4 -5 -6 -5 -6 -5 -5 -6 -4 -3 -2 -3 -3 -2 -3 -2 -2 -2 -8 -9 -14 -17 -16 -15 -15 -14 -13 -12 -12 -12 -11 -12 -12 -11 -9 -9 -8 -7
-8 -6 -9 -10 -8 -5 -3 0 1 -1 -1 -2 -2 -1 -2 -4 -4 -5 -5 -6 -5 -4 -2 -3 -2 -2 -5 -3 -3 -4 -3 -2 -7 -9 -10 -11 -15 -17 -15 -14 -13 -13 -12 -11 -11 -10 -10 -10 -10 -10 -10 -10 -9 -7
-7 -7 -9 -10 -6 -2 -1 -1 -1 -2 -3 -2 -2 -2 -2 -2 -3 -5 -6 -6 -4 -4 -4 -2 -5 -4 -3 -3 -3 -4 -7 -8 -8 -7 -7 -9 -12 -16 -16 -15 -13 -13 -12 -11 -11 -11 -11 -11 -10 -10 -9 -9 -8 -8
-8 -8 -9 -10 -5 -3 -3 -1 -1 -2 -2 -2 -2 -2 -2 -2 -2 -3 -4 -5 -5 -4 -3 -4 -3 -2 -5 -6 -5 -9 -10 -6 -5 -7 -9 -10 -13 -15 -16 -16 -16 -15 -15 -14 -12 -10 -9 -10 -10 -10 -10 -10 -9 -8
-9 -9 -10 -9 -4 -3 -3 -2 -2 -2 -2 -3 -2 -1 -1 -2 -2 -2 -3 -4 -4 -3 -3 -3 -3 -4 -7 -7 -8 -10 -10 -10 -7 -6 -5 -3 -1 -3 -10 -10 -12 -15 -10 -6 -7 -11 -10 -9 -9 -9 -8 -9 -10 -9
-7 -8 -10 -9 -5 -2 -2 -2 -3 -2 -2 -2 -2 -1 -1 -2 -2 -2 -3 -3 -3 -3 -2 -3 -3 -4 -4 -5 -6 -7 -9 -10 -10 -9 -7 -5 -3 -3 -3 -5 -6 -10 -8 -5 -7 -8 -9 -9 -8 -6 -6 -6 -9 -10
-6 -8 -8 -9 -4 -2 -3 -4 -2 -2 -3 -3 -2 -2 -2 -4 -4 -3 -3 -3 -3 -2 -3 -3 -3 -3 -3 -3 -4 -4 -4 -4 -4 -4 -4 -4 -5 -5 -6 -7 -8 -8 -7 -6 -6 -6 -5 -6 -6 -5 -6 -6 -8 -9
-6 -6 -4 -4 -3 -3 -3 -3 -3 -3 -3 -3 -3 -2 -2 -4 -4 -3 -3 -4 -3 -4 -4 -3 -4 -4 -3 -3 -3 -3 -3 -3 -3 -3 -4 -4 -4 -4 -4 -4 -4 -4 -4 -4 -4 -4 -4 -5 -6 -7 -8 -7 -7 -8
-5 -4 -5 -5 -3 -3 -3 -4 -4 -3 -3 -3 -3 -3 -4 -4 -4 -4 -3 -4 -4 -5 -4 -4 -4 -3 -3 -3 -3 -3 -3 -3 -3 -3 -3 -3 -3 -3 -3 -3 -3 -4 -4 -4 -4 -4 -5 -7 -8 -8 -8 -7 -7 -7
-4 -5 -4 -3 -3 -4 -5 -4 -4 -4 -4 -6 -5 -5 -6 -5 -4 -4 -5 -5 -5 -5 -5 -5 -4 -4 -3 -3 -3 -3 -3 -3 -3 -3 -3 -3 -3 -3 -3 -3 -4 -4 -4 -4 -4 -6 -9 -9 -9 -8 -8 -7 -7 -7
-4 -6 -4 -4 -5 -6 -6 -4 -5 -7 -8 -6 -6 -8 -6 -5 -4 -4 -6 -6 -6 -6 -7 -7 -6 -5 -4 -4 -4 -4 -5 -4 -3 -3 -3 -4 -3 -3 -3 -3 -4 -4 -5 -6 -8 -9 -9 -9 -8 -8 -8 -8 -7 -7
-5 -6 -4 -5 -5 -5 -7 -8 -8 -9 -8 -7 -8 -6 -5 -4 -5 -6 -8 -8 -8 -8 -8 -7 -7 -7 -7 -6 -2 -2 -3 -4 -4 -4 -4 -4 -4 -4 -4 -4 -5 -5 -7 -9 -9 -9 -9 -8 -8 -9 -8 -8 -7 -7
-5 -6 -4 -4 -4 -5 -8 -8 -8 -8 -8 -8 -8 -6 -4 -4 -5 -7 -8 -9 -8 -8 -8 -8 -8 -7 -7 -7 -5 -6 -4 -3 -5 -6 -5 -5 -5 -6 -5 -7 -9 -10 -9 -9 -9 -9 -9 -8 -8 -9 -9 -8 -8 -8
-5 -8 -5 -5 -6 -7 -6 -8 -8 -7 -7 -8 -6 -6 -7 -6 -7 -7 -8 -8 -8 -8 -8 -10 -12 -11 -9 -8 -7 -7 -7 -6 -7 -7 -7 -7 -8 -9 -11 -11 -11 -10 -10 -9 -9 -9 -8 -8 -8 -8 -8 -8 -8 -8
-6 -7 -6 -7 -5 -5 -6 -6 -6 -7 -7 -7 -7 -7 -8 -8 -8 -7 -7 -8 -9 -11 -14 -14 -15 -14 -12 -8 -8 -7 -7 -7 -6 -6 -7 -8 -8 -11 -11 -11 -11 -11 -10 -9 -9 -9 -8 -8 -7 -8 -8 -8 -8 -8
-8 -5 -5 -6 -7 -7 -7 -7 -7 -7 -6 -7 -7 -7 -7 -7 -8 -9 -9 -11 -13 -13 -12 -13 -12 -13 -11 -11 -10 -9 -8 -7 -7 -7 -6 -6 -8 -9 -10 -10 -10 -10 -10 -9 -9 -8 -7 -6 -7 -8 -8 -8 -8 -7
-6 -5 -7 -6 -7 -7 -7 -7 -7 -6 -6 -6 -6 -7 -7 -7 -7 -7 -9 -10 -11 -11 -12 -12 -11 -13 -12 -10 -9 -8 -9 -7 -7 -7 -6 -5 -5 -8 -10 -10 -9 -9 -9 -9 -8 -7 -6 -6 -7 -8 -8 -8 -8 -8
-6 -6 -7 -8 -10 -10 -9 -7 -9 -9 -9 -9 -7 -6 -6 -7 -7 -8 -9 -10 -11 -13 -14 -13 -11 -10 -9 -8 -8 -7 -7 -7 -7 -7 -7 -7 -6 -7 -9 -6 -4 -8 -9 -9 -8 -7 -6 -6 -8 -9 -8 -8 -8 -11
Wind_Speed
17 18 13 10 14 16 15 14 16 13 11 9 8 8 7 8 9 6 4 4 4 4 11 9 8 5 4 4 2 1 2 1 1 3 3 2 3 1 3 3 4 6 5 5 4 6 7 10 7 6 2 2 4 9
23 21 18 12 11 15 16 15 16 16 12 11 8 8 7 7 7 7 4 5 6 7 8 16 18 16 16 13 4 5 2 1 2 0 1 1 3 3 3 4 2 4 5 2 7 5 2 18 6 13 2 2 6 10
24 23 19 14 13 13 15 16 16 17 14 12 11 10 9 8 7 6 6 5 6 6 10 10 8 13 19 19 15 5 5 6 4 5 2 1 6 2 4 6 3 6 7 5 3 4 12 21 25 26 22 19 15 11
18 21 20 17 13 15 14 15 17 16 16 13 13 11 11 10 10 10 8 8 6 4 3 4 4 8 9 12 17 18 15 7 5 5 4 3 3 7 3 4 6 7 9 7 10 19 22 22 18 17 15 19 21 21
16 20 20 20 15 15 16 15 17 16 15 13 13 13 13 11 11 13 13 13 11 6 4 7 19 19 17 17 14 15 14 12 6 3 4 4 3 3 4 3 9 14 10 8 7 8 12 7 6 5 10 12 13 18
16 19 21 21 19 16 17 16 17 17 16 14 12 14 14 12 10 8 6 4 6 7 4 3 6 8 6 8 12 12 12 10 6 3 4 4 5 3 4 5 9 18 19 25 13 11 13 12 13 16 19 22 15 12
19 19 20 22 21 19 18 16 18 18 16 14 13 12 13 12 10 7 4 1 3 1 4 7 4 4 7 8 8 9 11 8 8 4 6 4 5 7 4 7 4 11 18 22 23 22 16 19 12 13 11 11 10 9
16 18 19 20 20 21 20 18 17 19 18 14 12 13 14 12 14 16 19 16 12 7 6 3 3 3 10 6 5 8 5 8 7 4 3 5 4 7 7 18 17 16 13 18 22 21 21 20 21 17 14 11 10 11
15 16 16 17 18 17 20 20 18 18 20 15 13 12 12 12 7 9 14 14 13 13 5 5 2 2 10 3 5 7 6 3 4 4 5 6 5 8 13 17 16 16 11 6 6 9 10 15 17 17 15 15 15 14
14 15 16 17 17 17 16 16 16 13 18 15 12 4 5 5 8 5 3 4 7 10 9 6 6 2 8 5 3 5 4 2 3 3 3 5 7 24 31 32 27 25 21 14 15 19 18 16 15 14 15 15 16 14
16 15 16 17 16 14 14 13 12 15 18 17 8 6 6 4 4 4 3 4 5 4 8 8 16 5 9 3 3 6 3 2 2 1 3 3 5 7 15 14 13 11 23 30 26 25 22 19 14 10 12 14 16 16
20 18 18 17 16 15 14 10 13 18 26 18 6 8 5 5 6 3 3 2 5 5 5 4 6 8 7 6 3 5 3 3 5 3 2 4 5 14 11 8 8 6 7 11 13 14 15 17 15 11 9 13 15 15
20 20 20 18 17 15 13 11 14 18 26 18 8 7 6 5 4 7 9 4 4 6 9 7 3 8 5 6 1 3 5 5 5 3 5 6 7 5 5 7 9 8 6 6 6 5 5 9 14 10 9 10 12 15
21 21 20 21 19 17 13 11 14 24 23 10 8 6 6 6 6 7 6 2 5 6 15 15 6 4 4 3 2 4 2 2 3 4 7 3 10 11 9 7 6 4 4 2 1 1 2 7 9 8 9 11 13 15
20 21 21 23 20 17 16 14 15 24 24 8 8 6 10 14 9 6 14 6 4 8 21 7 4 4 2 2 3 1 2 5 5 5 3 7 5 9 7 5 4 4 3 1 2 1 2 5 8 10 12 14 15 16
21 22 25 21 19 17 15 16 18 29 13 13 9 7 6 3 6 13 12 11 11 18 14 3 2 2 6 3 4 9 4 7 4 3 10 6 9 10 8 6 5 5 4 3 2 2 4 7 9 10 13 16 17 18
19 26 22 16 15 15 15 16 22 13 10 7 10 25 19 8 13 14 21 19 19 21 3 3 4 8 2 3 5 6 6 4 6 6 8 9 12 12 10 8 8 9 7 5 4 3 5 9 12 15 19 19 19 19
26 24 20 17 14 15 16 15 8 6 7 12 7 19 23 26 25 19 16 21 23 19 10 6 3 4 5 5 4 4 14 13 11 13 18 17 16 17 16 13 12 14 14 12 12 12 14 15 16 18 20 21 21 21
26 21 19 18 15 14 7 9 14 7 15 10 17 18 16 18 28 28 25 24 29 21 12 8 4 5 7 8 7 14 9 10 12 10 12 14 13 18 23 20 18 19 19 22 23 23 21 21 23 23 26 25 25 24
23 22 21 20 17 11 8 8 13 9 9 13 16 15 12 16 19 24 26 27 33 14 6 5 7 18 13 23 25 28 30 25 22 21 24 30 35 32 27 25 30 26 23 31 35 36 32 34 32 29 30 32 30 28
23 26 23 22 24 22 9 8 8 7 6 9 11 14 8 14 15 17 23 31 16 7 4 28 39 41 41 44 43 41 35 31 30 33 36 34 34 35 39 40 35 32 39 43 42 43 41 44 39 33 29 30 30 28
26 21 20 21 15 11 14 16 7 5 6 4 9 10 5 5 7 13 13 15 8 22 28 37 42 40 39 47 57 58 58 53 54 54 54 51 45 43 41 40 42 46 48 49 44 38 38 41 37 31 27 25 25 25
22 20 15 11 12 13 9 17 11 11 5 5 9 4 4 6 8 15 7 12 21 41 50 48 55 54 51 57 48 52 47 42 44 45 45 43 45 47 49 50 47 46 47 46 40 35 35 31 25 24 22 22 22 22
19 10 9 9 16 5 10 10 8 7 6 4 4 5 4 7 15 6 5 10 36 42 37 45 49 47 46 45 46 48 50 39 42 47 48 42 40 43 48 46 44 42 40 33 29 29 25 22 20 20 20 19 20 21
8 9 8 10 11 6 6 5 5 4 5 6 7 6 3 9 4 5 4 9 34 39 40 43 41 40 40 43 41 42 40 34 38 44 44 39 40 39 38 39 38 35 31 28 27 25 21 19 19 19 19 19 19 20
9 15 10 7 6 6 6 6 9 9 4 6 8 4 7 4 5 6 4 30 36 34 35 31 32 34 37 41 42 41 42 34 34 41 41 35 36 37 37 36 34 30 20 17 19 18 18 18 18 18 18 18 18 20
6 7 6 12 10 7 4 3 4 3 7 8 4 6 5 5 7 6 29 33 36 32 25 17 16 21 27 25 20 29 29 29 32 36 31 28 28 27 27 28 27 20 13 12 13 12 13 15 15 16 16 17 19 19
10 9 8 11 9 10 4 3 7 9 5 8 9 7 7 8 7 15 19 22 18 18 25 34 36 29 26 26 20 21 26 28 28 26 28 28 28 27 24 20 16 12 11 12 12 12 12 13 14 13 15 16 18 18
13 20 15 6 6 5 7 9 7 12 12 15 6 5 7 23 34 31 30 29 32 34 39 43 42 40 42 41 33 27 24 27 29 27 29 30 24 17 14 15 15 15 14 14 14 14 13 13 12 12 12 14 15 16
12 22 12 7 5 7 12 17 15 22 22 27 26 21 26 37 39 35 36 38 40 44 49 49 49 48 49 45 42 36 30 25 25 31 28 30 23 14 10 12 13 13 13 15 15 14 15 15 15 15 16 19 21 23
17 20 8 12 9 27 35 33 29 24 19 19 26 26 35 32 36 36 39 45 49 50 50 53 53 50 49 48 47 41 38 32 29 28 24 25 23 22 16 13 11 12 14 14 15 15 16 15 14 14 18 20 22 25
19 17 8 6 7 19 13 9 13 17 23 22 27 33 26 19 20 43 52 41 40 43 46 45 46 49 46 44 43 42 38 34 30 27 25 21 22 25 26 18 16 16 16 16 16 16 16 15 14 16 18 20 24 26
8 10 8 2 2 5 13 11 6 5 8 8 18 29 29 26 17 46 36 28 35 43 44 39 34 33 34 36 37 34 32 30 28 28 27 25 24 26 26 16 19 21 20 19 18 17 17 16 15 17 20 23 26 26
Wind_Direction
303 311 319 328 336 341 346 337 332 328 334 328 318 313 324 343 353 342 273 293 322 290 292 269 250 226 210 202 246 28 289 189 183 209 215 188 231 184 262 252 209 206 192 209 187 226 269 143 118 207 29 139 185 202
287 291 298 309 315 324 333 331 331 323 316 325 305 303 298 315 342 350 303 274 280 273 271 285 280 270 252 246 217 206 217 219 228 214 243 236 232 198 230 273 186 250 230 264 220 235 62 192 244 217 243 216 224 223
274 278 282 288 300 304 314 326 327 320 312 314 310 290 289 287 301 320 329 316 309 289 287 282 288 268 252 246 239 238 230 213 203 195 176 331 260 167 232 230 249 225 200 235 279 221 241 241 248 259 264 263 259 252
285 281 280 280 283 294 300 309 320 321 309 303 310 294 282 281 280 290 297 303 306 279 275 270 302 296 286 263 242 234 244 226 214 198 219 231 245 192 239 294 243 239 161 217 256 274 271 268 251 268 272 270 266 246
282 292 287 279 268 282 290 296 301 313 311 296 303 303 287 282 280 274 281 281 268 249 275 274 284 278 265 251 241 231 237 241 220 200 206 230 241 232 230 274 243 210 223 208 238 243 251 269 280 290 300 312 312 244
271 275 286 285 276 267 281 285 290 294 305 296 283 300 293 284 285 295 291 276 234 220 275 285 260 252 245 217 217 220 220 222 223 236 236 239 232 230 265 254 243 217 226 229 244 266 249 265 282 290 291 298 296 266
268 268 273 282 279 268 272 277 278 281 286 293 289 289 289 281 269 230 269 200 128 346 282 294 252 214 190 187 191 206 212 208 210 224 229 236 213 203 247 250 232 246 245 249 253 255 270 277 286 294 286 283 280 242
267 268 272 279 280 270 269 278 274 273 274 272 279 285 284 275 268 260 251 245 257 288 258 263 270 234 190 163 161 177 185 198 222 247 234 217 199 215 248 245 256 261 272 269 260 254 259 276 283 277 271 274 260 235
267 269 273 282 289 287 264 263 280 269 264 256 262 284 281 266 254 254 262 248 235 220 257 224 234 253 174 157 147 157 170 219 214 239 233 192 215 225 230 248 246 262 245 253 261 222 252 283 283 272 263 249 238 231
269 267 271 280 290 290 289 272 270 269 251 241 245 255 249 230 237 263 257 233 208 211 232 242 225 215 167 174 169 143 162 204 237 219 166 234 257 255 248 244 253 251 241 235 231 250 257 271 274 257 255 237 228 226
265 266 266 275 285 296 295 285 264 267 223 221 208 210 247 236 219 227 228 207 190 247 228 236 208 162 194 168 177 214 170 148 236 176 229 261 266 251 250 240 240 245 231 236 251 263 262 259 240 234 228 219 222 225
265 263 265 266 273 288 296 287 267 263 232 225 188 178 179 217 224 213 221 236 207 236 203 205 205 200 176 192 184 190 191 149 234 141 234 258 252 267 250 234 224 243 234 237 246 252 252 241 228 228 227 228 232 233
265 262 262 265 265 275 280 281 255 265 232 196 186 178 184 205 238 210 199 221 232 202 184 165 164 168 172 198 166 177 176 223 131 203 233 239 267 256 232 246 260 260 230 235 261 270 232 206 202 221 244 244 236 232
267 267 264 265 266 265 270 275 262 241 202 180 179 193 206 201 233 205 200 195 208 197 168 159 136 183 170 178 173 221 202 153 229 236 237 243 257 246 244 246 261 231 216 204 336 2 167 184 207 231 250 256 250 241
269 269 267 260 264 267 265 255 258 228 214 185 177 219 222 227 241 247 225 223 217 174 159 141 119 158 172 196 210 77 228 248 234 240 238 279 215 183 198 211 219 229 234 184 91 351 294 269 262 261 260 258 252 239
271 273 265 271 265 270 267 246 235 220 224 204 200 239 238 230 237 222 222 220 201 168 168 222 138 166 226 193 171 214 193 226 240 224 264 276 199 190 185 206 220 201 194 197 133 28 332 313 302 285 268 263 255 244
265 262 269 272 266 263 250 244 229 207 223 216 221 220 226 249 230 238 225 211 184 161 209 168 207 218 105 213 228 194 211 220 239 288 315 281 230 214 212 212 221 215 213 230 256 302 300 291 297 294 291 284 269 255
253 261 266 263 262 266 277 253 242 244 241 219 234 229 222 230 230 232 220 194 169 183 180 204 180 212 226 217 223 232 241 258 283 292 294 289 250 230 234 232 232 236 243 252 261 266 265 271 279 289 298 287 271 258
258 262 259 253 248 257 242 224 210 219 230 235 246 255 237 244 239 236 237 217 198 187 188 176 211 221 229 224 242 262 258 240 269 273 300 309 285 271 259 251 252 255 264 266 264 270 280 279 280 284 279 274 270 264
255 257 255 244 244 243 244 236 202 217 218 235 226 222 220 237 248 237 224 210 202 187 192 204 217 224 222 241 252 263 264 269 261 265 271 271 280 288 282 282 276 266 282 291 284 274 272 280 282 289 286 275 267 266
254 252 249 241 244 238 242 232 226 228 215 209 227 213 225 222 213 211 210 210 193 210 227 225 238 245 247 249 252 259 260 260 257 260 270 276 276 275 271 275 267 269 279 281 278 279 276 277 285 290 283 274 268 266
248 254 255 246 235 226 230 237 224 207 212 218 178 202 201 197 206 213 208 192 228 234 238 246 249 253 258 257 261 261 261 263 266 268 271 273 271 270 269 269 267 270 273 276 278 278 283 282 286 285 277 269 261 261
248 248 243 235 236 219 235 217 199 220 214 204 177 213 222 203 211 179 202 215 231 241 245 246 252 255 255 260 261 266 267 265 265 267 269 271 273 275 277 279 277 274 276 279 282 280 275 280 276 272 267 259 253 253
237 223 220 224 215 217 176 190 199 203 215 181 198 228 235 204 165 207 235 224 245 257 249 255 255 254 260 262 262 262 263 262 266 270 270 264 265 268 276 280 283 279 279 280 276 273 271 269 268 265 263 259 252 246
215 210 210 231 219 185 170 184 184 193 216 193 191 234 196 165 199 218 232 256 256 256 256 261 255 252 254 263 266 264 267 262 262 261 270 272 280 281 277 276 277 278 278 275 266 263 263 262 258 257 257 255 252 243
210 209 207 202 204 182 172 178 199 201 165 182 218 188 156 181 208 236 222 247 254 261 270 278 273 273 265 262 262 272 280 277 269 263 273 280 279 277 278 278 278 278 274 261 254 251 252 251 252 251 250 245 239 234
199 233 229 231 204 187 169 170 158 157 181 202 183 161 168 206 228 241 255 262 268 279 288 295 296 293 293 290 310 321 312 292 278 278 284 284 281 276 270 267 268 270 266 249 248 247 249 249 249 245 242 235 232 231
219 200 204 210 202 221 203 182 169 197 214 192 147 180 191 205 227 243 261 279 280 293 303 300 300 296 295 300 292 310 307 301 297 290 282 275 271 269 260 254 251 254 248 246 248 252 255 247 242 239 238 233 227 221
213 229 230 201 206 218 214 197 212 226 196 175 188 212 231 247 259 265 275 284 288 290 289 291 294 294 291 290 287 289 280 285 291 286 281 279 283 265 250 245 246 249 248 249 250 253 248 237 235 235 231 221 213 208
218 219 217 199 203 219 227 213 230 246 238 231 235 243 247 253 262 267 271 276 280 284 288 290 290 289 287 287 285 283 272 270 281 282 274 277 269 261 260 254 244 241 240 241 244 244 237 234 236 232 218 204 198 193
217 204 210 215 228 244 244 247 241 235 228 231 238 242 250 264 272 270 270 275 279 283 283 283 285 287 283 280 275 272 269 263 262 264 273 282 266 249 247 247 248 247 246 242 239 234 232 233 232 226 216 207 197 189
198 186 186 215 240 241 247 231 226 229 238 236 239 245 251 256 261 275 274 273 272 273 279 280 279 282 284 282 278 273 266 262 262 257 244 250 264 253 240 245 263 260 248 240 233 229 230 226 226 218 207 197 191 182
203 206 214 239 217 223 211 198 216 251 230 235 239 241 243 247 257 263 272 270 272 276 280 284 286 291 291 286 281 279 273 267 264 261 256 244 246 253 234 235 257 257 244 237 231 226 223 220 215 205 192 183 178 178
Height
1539 1538 1537 1536 1534 1533 1530 1528 1527 1525 1523 1521 1520 1519 1519 1519 1517 1516 1514 1515 1517 1516 1514 1513 1512 1512 1511 1512 1511 1513 1513 1510 1510 1506 1505 1503 1504 1503 1505 1497 1493 1489 1491 1490 1493 1489 1475 1461 1468 1463 1453 1452 1454 1455
1535 1534 1532 1533 1532 1531 1530 1528 1526 1525 1523 1521 1518 1517 1517 1517 1517 1516 1515 1513 1512 1514 1512 1511 1510 1510 1509 1509 1509 1508 1509 1509 1508 1507 1509 1507 1502 1506 1500 1487 1496 1491 1480 1474 1475 1456 1455 1456 1454 1453 1452 1453 1452 1453
1530 1529 1528 1527 1529 1529 1528 1527 1525 1523 1522 1521 1518 1516 1515 1516 1516 1515 1514 1513 1512 1509 1505 1504 1503 1504 1504 1505 1507 1509 1505 1504 1505 1505 1507 1506 1502 1501 1492 1491 1486 1481 1480 1476 1470 1449 1452 1452 1452 1451 1451 1450 1450 1451
1525 1524 1524 1523 1523 1525 1525 1524 1523 1521 1520 1520 1518 1516 1514 1514 1514 1514 1513 1512 1511 1509 1506 1500 1498 1500 1501 1501 1502 1504 1504 1503 1503 1504 1505 1502 1498 1497 1488 1484 1481 1471 1474 1464 1457 1448 1447 1444 1445 1447 1445 1445 1445 1447
1520 1519 1519 1519 1518 1519 1520 1520 1520 1518 1517 1517 1517 1516 1513 1512 1511 1511 1510 1509 1509 1512 1504 1497 1492 1489 1490 1494 1496 1498 1501 1503 1502 1503 1502 1500 1497 1496 1489 1487 1464 1458 1453 1453 1440 1440 1441 1441 1441 1442 1443 1442 1440 1440
1514 1514 1514 1514 1514 1513 1514 1516 1516 1515 1514 1513 1512 1514 1513 1512 1510 1510 1507 1505 1505 1506 1505 1497 1488 1483 1484 1485 1489 1494 1496 1499 1502 1501 1498 1493 1491 1492 1483 1466 1441 1439 1438 1439 1437 1437 1439 1440 1440 1440 1439 1439 1439 1438
1507 1508 1508 1509 1509 1509 1509 1509 1511 1511 1511 1510 1510 1510 1509 1510 1510 1510 1509 1507 1506 1506 1505 1496 1483 1481 1480 1483 1486 1490 1492 1494 1496 1496 1492 1490 1488 1488 1477 1452 1431 1433 1433 1434 1434 1435 1435 1435 1435 1436 1435 1434 1434 1434
1499 1501 1502 1503 1503 1503 1504 1505 1505 1506 1507 1507 1506 1506 1507 1505 1506 1506 1504 1506 1506 1507 1505 1496 1483 1481 1480 1479 1483 1486 1490 1492 1492 1490 1486 1483 1481 1476 1459 1425 1426 1429 1429 1429 1429 1429 1429 1430 1430 1430 1430 1431 1431 1431
1494 1495 1496 1498 1497 1497 1499 1500 1500 1501 1501 1502 1503 1504 1503 1502 1500 1499 1501 1500 1501 1506 1498 1491 1482 1476 1479 1479 1479 1482 1484 1487 1487 1483 1480 1478 1463 1451 1420 1418 1421 1422 1423 1422 1423 1424 1425 1424 1423 1423 1423 1423 1424 1426
1491 1491 1490 1491 1492 1492 1493 1494 1496 1495 1496 1499 1501 1502 1500 1499 1496 1498 1496 1498 1496 1495 1491 1483 1476 1476 1478 1479 1479 1480 1479 1478 1479 1473 1474 1468 1439 1419 1410 1406 1408 1408 1411 1413 1415 1415 1415 1414 1414 1414 1414 1415 1417 1418
1487 1487 1487 1487 1486 1487 1489 1489 1492 1492 1491 1496 1496 1497 1498 1498 1497 1494 1492 1493 1491 1488 1480 1471 1470 1470 1474 1474 1473 1475 1473 1474 1472 1468 1469 1452 1429 1407 1402 1402 1403 1399 1399 1403 1405 1405 1405 1406 1406 1407 1408 1409 1412 1413
1481 1482 1484 1483 1481 1482 1484 1484 1486 1488 1486 1490 1491 1493 1496 1497 1494 1491 1487 1486 1482 1472 1465 1467 1466 1469 1469 1471 1469 1472 1470 1473 1467 1468 1468 1448 1412 1404 1404 1403 1403 1402 1402 1401 1400 1399 1398 1399 1402 1404 1405 1407 1409 1410
1475 1477 1478 1478 1478 1478 1479 1480 1480 1483 1484 1484 1489 1490 1490 1492 1493 1481 1476 1473 1469 1458 1457 1461 1465 1466 1469 1469 1470 1467 1467 1465 1465 1464 1445 1417 1400 1400 1403 1405 1404 1403 1402 1402 1401 1398 1395 1396 1400 1403 1404 1404 1406 1408
1469 1469 1468 1469 1471 1472 1472 1474 1475 1478 1477 1478 1482 1483 1480 1476 1469 1459 1451 1450 1450 1452 1453 1457 1459 1463 1464 1467 1466 1465 1459 1460 1458 1454 1424 1401 1395 1398 1400 1403 1405 1403 1402 1400 1400 1400 1399 1399 1400 1400 1402 1403 1404 1404
1458 1460 1462 1461 1465 1466 1467 1470 1470 1470 1471 1467 1469 1467 1461 1452 1448 1448 1447 1448 1451 1449 1453 1458 1456 1459 1462 1461 1463 1463 1463 1453 1442 1418 1403 1394 1392 1395 1399 1400 1401 1403 1403 1400 1398 1400 1400 1399 1398 1398 1398 1398 1398 1399
1452 1452 1450 1456 1458 1460 1460 1462 1462 1463 1460 1455 1456 1454 1448 1447 1443 1443 1443 1447 1448 1448 1455 1457 1455 1454 1453 1452 1455 1449 1445 1432 1410 1405 1396 1394 1394 1395 1395 1398 1400 1400 1401 1402 1399 1399 1400 1399 1397 1396 1395 1394 1393 1393
1445 1444 1443 1451 1454 1455 1451 1450 1453 1451 1448 1442 1437 1434 1436 1436 1432 1434 1434 1438 1441 1450 1452 1453 1452 1441 1447 1443 1439 1429 1423 1404 1396 1395 1395 1395 1394 1395 1395 1394 1397 1398 1399 1399 1399 1397 1398 1398 1397 1395 1392 1391 1391 1391
1436 1438 1441 1446 1447 1446 1443 1443 1443 1438 1434 1431 1431 1422 1424 1423 1424 1426 1428 1430 1435 1438 1442 1444 1441 1440 1434 1425 1416 1405 1399 1397 1396 1393 1392 1393 1393 1393 1392 1391 1392 1394 1395 1394 1396 1395 1393 1391 1389 1390 1389 1386 1384 1385
1432 1432 1435 1439 1440 1441 1440 1434 1432 1429 1427 1425 1420 1418 1420 1418 1417 1420 1423 1423 1425 1425 1430 1432 1433 1426 1411 1404 1403 1397 1395 1394 1393 1391 1390 1391 1391 1392 1391 1389 1388 1389 1388 1389 1388 1388 1387 1385 1381 1381 1382 1379 1378 1377
1424 1425 1428 1432 1434 1435 1430 1424 1422 1417 1413 1411 1407 1408 1412 1411 1411 1412 1415 1416 1417 1419 1420 1419 1409 1395 1392 1391 1393 1391 1389 1389 1388 1385 1382 1382 1385 1387 1386 1385 1384 1382 1381 1383 1381 1379 1377 1376 1374 1371 1372 1372 1369 1369
1416 1417 1421 1423 1424 1423 1418 1412 1409 1406 1405 1403 1401 1403 1403 1402 1402 1404 1405 1407 1410 1407 1403 1392 1386 1384 1384 1383 1384 1383 1381 1380 1377 1377 1374 1371 1374 1375 1375 1376 1374 1374 1372 1372 1369 1368 1367 1363 1364 1361 1361 1360 1360 1361
1407 1410 1412 1412 1413 1410 1406 1402 1400 1399 1401 1396 1398 1398 1395 1394 1394 1396 1398 1402 1399 1394 1387 1381 1378 1376 1375 1371 1368 1368 1368 1370 1368 1365 1363 1363 1360 1361 1361 1362 1363 1360 1359 1358 1356 1355 1354 1352 1352 1349 1349 1349 1350 1351
1402 1404 1404 1405 1402 1396 1391 1391 1392 1392 1394 1391 1392 1391 1388 1387 1385 1389 1390 1385 1378 1371 1368 1368 1365 1363 1360 1355 1356 1352 1356 1359 1357 1353 1350 1349 1347 1348 1347 1347 1347 1344 1342 1341 1343 1343 1340 1341 1340 1338 1339 1339 1339 1342
1395 1394 1393 1390 1385 1377 1379 1382 1383 1384 1383 1384 1384 1383 1380 1378 1380 1381 1374 1367 1360 1357 1357 1354 1352 1349 1348 1346 1343 1342 1342 1345 1340 1337 1337 1338 1335 1333 1332 1331 1330 1329 1329 1332 1331 1329 1329 1331 1331 1331 1331 1331 1332 1333
1385 1382 1382 1374 1371 1370 1371 1374 1374 1375 1372 1374 1376 1372 1370 1373 1373 1370 1363 1353 1347 1344 1342 1340 1340 1339 1337 1333 1332 1331 1331 1330 1326 1323 1323 1323 1321 1322 1321 1319 1317 1317 1319 1320 1319 1319 1320 1322 1322 1322 1323 1325 1326 1328
1366 1364 1362 1357 1359 1361 1360 1362 1363 1363 1366 1367 1365 1362 1363 1364 1363 1357 1347 1334 1331 1332 1330 1330 1329 1328 1325 1323 1321 1319 1317 1317 1316 1315 1312 1312 1312 1312 1310 1309 1307 1306 1309 1309 1309 1310 1312 1314 1314 1314 1315 1317 1319 1322
1352 1351 1349 1350 1348 1348 1350 1352 1353 1356 1359 1356 1355 1357 1357 1356 1351 1335 1325 1325 1324 1324 1325 1322 1320 1320 1316 1314 1313 1310 1307 1308 1309 1305 1302 1301 1302 1302 1303 1300 1297 1299 1302 1302 1303 1305 1306 1307 1307 1308 1309 1311 1313 1316
1342 1341 1343 1341 1341 1341 1340 1341 1343 1345 1341 1341 1344 1345 1342 1338 1326 1319 1319 1319 1319 1318 1317 1315 1313 1311 1309 1308 1306 1304 1303 1300 1297 1295 1293 1292 1292 1293 1293 1293 1293 1294 1296 1297 1299 1299 1300 1301 1302 1303 1304 1306 1309 1312
1329 1329 1332 1334 1336 1336 1333 1333 1330 1326 1323 1327 1329 1329 1325 1316 1313 1314 1314 1314 1312 1310 1307 1303 1301 1300 1297 1297 1298 1298 1296 1295 1292 1290 1288 1285 1287 1286 1287 1288 1288 1290 1291 1292 1293 1294 1295 1296 1297 1298 1300 1302 1305 1308
1317 1321 1324 1326 1326 1323 1318 1318 1314 1316 1316 1315 1313 1311 1308 1304 1303 1307 1306 1304 1302 1297 1293 1291 1287 1286 1283 1284 1284 1286 1287 1287 1288 1286 1283 1281 1281 1283 1284 1284 1285 1285 1286 1287 1287 1288 1289 1290 1292 1293 1295 1297 1299 1302
1308 1311 1309 1309 1307 1305 1306 1307 1307 1306 1306 1305 1305 1304 1297 1294 1292 1292 1291 1288 1285 1283 1279 1274 1272 1272 1269 1267 1266 1269 1270 1272 1273 1276 1276 1275 1274 1276 1279 1280 1280 1281 1282 1282 1282 1283 1284 1286 1287 1289 1291 1293 1296 1300
1296 1297 1301 1303 1299 1297 1300 1301 1299 1299 1296 1295 1292 1290 1289 1288 1282 1274 1269 1274 1272 1267 1263 1262 1257 1251 1251 1250 1250 1251 1253 1258 1260 1262 1264 1266 1267 1269 1272 1273 1275 1276 1277 1277 1277 1278 1280 1282 1284 1286 1287 1290 1295 1300
1289 1290 1289 1291 1291 1289 1288 1292 1290 1289 1287 1283 1278 1277 1275 1275 1269 1256 1255 1258 1258 1253 1247 1245 1243 1241 1240 1239 1238 1239 1241 1244 1247 1249 1251 1255 1258 1259 1263 1267 1270 1270 1271 1272 1273 1274 1276 1278 1280 1282 1285 1289 1295 1299